Location: Endfield
(51.6667°N, 0.0667°W)
Time: 20:25:53
(UTC+00:00)

Cosmos 2278 Rocket - Pass Details

Date: 19 May 2024
Orbit: 840 x 846 km, 71.0° (Epoch: 14 June)

Event Time Altitude Azimuth Distance (km) Brightness Sun altitude
Rises 20:30:33 0° 323° (NW) 3,417 7.5 -5.4°
Reaches altitude 10° 20:33:17 10° 313° (NW) 2,477 6.6 -5.7°
Maximum altitude 20:38:03 29° 255° (WSW) 1,520 3.9 -6.2°
Drops below altitude 10° 20:42:48 10° 198° (SSW) 2,459 4.4 -6.8°
Sets 20:45:32 0° 187° (S) 3,388 5.0 -7.1°
